EW4052 Weather Reports


time (UTC)temp
F
wind
direction
speed
knots
gust
knots
rain 1hr
in
rain 24hr
in
rain mn
in
humidity
%
barometer
mb
20260905100010 71 29 0.0 0.0 0.00 0.00 0.00 100 1011.9
20260905094600 71 29 0.0 0.0 0.00 0.00 0.00 100 1011.6
20260905093100 71 17 0.0 0.0 0.00 0.00 0.00 100 1011.1
20260905091600 72 15 0.0 0.0 0.00 0.00 0.00 100 1010.9
20260905090046 72 15 0.0 0.0 0.00 0.00 0.00 100 1011.1
20260905084549 72 15 0.0 0.0 0.00 0.00 0.00 100 1011.3
20260905083040 73 27 0.0 4.3 0.00 0.00 0.00 100 1011.3
20260905081534 73 360 0.0 0.9 0.00 0.00 0.00 100 1011.4
20260905080040 72 198 0.0 0.0 0.00 0.00 0.00 100 1011.5
20260905074524 72 198 0.0 0.0 0.00 0.00 0.00 100 1011.3
20260905073024 72 198 0.0 0.0 0.00 0.00 0.00 100 1011.5
20260905071515 72 198 0.0 0.0 0.00 0.00 0.00 100 1011.4
20260905070016 73 198 0.0 0.0 0.00 0.00 0.00 100 1011.4
20260905064525 73 198 0.0 0.0 0.00 0.00 0.00 100 1011.4
20260905063011 73 198 0.0 0.0 0.00 0.00 0.00 100 1011.4
20260905061506 73 198 0.0 0.0 0.00 0.00 0.00 100 1011.5
20260905060005 73 198 0.0 0.0 0.00 0.00 0.00 100 1011.3
20260905054558 74 198 0.0 0.0 0.00 0.00 0.00 100 1011.2
20260905053059 74 198 0.0 0.0 0.00 0.00 0.00 100 1011.2
20260905051549 74 198 0.0 0.0 0.00 0.00 0.00 100 1011.1
20260905050044 74 198 0.0 0.0 0.00 0.00 0.00 100 1011.1
20260905044542 74 198 0.0 0.0 0.00 0.00 0.00 100 1010.9
20260905043041 74 198 0.0 0.0 0.00 0.00 0.00 100 1010.9
20260905041540 74 198 0.0 0.0 0.00 0.00 0.00 100 1011.0
20260905040040 75 198 0.0 0.0 0.00 0.00 0.00 100 1010.9
20260905034539 75 198 0.0 0.0 0.00 0.00 0.00 100 1011.0
20260905033037 76 198 0.0 0.0 0.00 0.00 0.00 100 1011.0
20260905031531 76 198 0.0 0.0 0.00 0.00 0.00 100 1010.9
20260905030034 77 198 0.0 0.0 0.00 0.00 0.00 100 1010.9
20260905024530 77 198 0.0 0.0 0.00 0.00 0.00 5 1010.8
20260905023020 77 198 0.0 0.0 0.00 0.00 0.00 12 1010.6
20260905021518 78 198 0.0 0.0 0.00 0.00 0.00 18 1010.5
20260905020025 78 198 0.0 0.0 0.00 0.00 0.00 26 1010.4
20260905014516 79 198 0.0 0.0 0.00 0.00 0.00 24 1010.2
20260905013014 80 198 0.0 0.0 0.00 0.00 0.00 25 1010.1
20260905011510 81 198 0.0 0.0 0.00 0.00 0.00 29 1009.8
20260905010010 82 198 0.0 0.0 0.00 0.00 0.00 43 1009.7
20260905004510 83 198 0.0 0.0 0.00 0.00 0.00 49 1009.7
20260905003008 83 198 0.0 0.0 0.00 0.00 0.00 56 1009.7
20260905001507 84 198 0.0 0.0 0.00 0.00 0.00 63 1009.6
20260905000005 85 198 0.0 0.0 0.00 0.00 0.00 67 1009.5
20260904234507 86 198 0.0 0.0 0.00 0.00 0.00 69 1009.6
20260904233004 87 198 0.0 0.0 0.00 0.00 0.00 69 1009.4
20260904231504 88 198 0.0 0.0 0.00 0.00 0.00 69 1009.2
20260904230003 88 197 0.0 0.9 0.00 0.00 0.00 69 1009.2
20260904224501 88 202 0.0 2.6 0.00 0.00 0.00 69 1009.1
20260904223001 89 246 0.0 0.0 0.00 0.00 0.00 68 1008.9
20260904221610 89 247 1.7 4.3 0.00 0.00 0.00 69 1008.8
20260904214611 88 360 0.0 0.0 0.00 0.00 0.00 69 1008.8
20260904213058 88 159 0.0 0.0 0.00 0.00 0.00 69 1008.9
20260904211606 89 159 0.0 1.7 0.00 0.00 0.00 67 1009.1
20260904210057 90 222 0.0 2.6 0.00 0.00 0.00 66 1009.0
20260904204556 90 213 0.0 4.3 0.00 0.00 0.00 67 1008.9
20260904203057 90 259 0.0 0.0 0.00 0.00 0.00 67 1008.8
20260904201554 90 124 0.0 1.7 0.00 0.00 0.00 68 1008.8
20260904200106 89 138 0.0 2.6 0.00 0.00 0.00 68 1008.8
20260904194557 89 339 0.0 1.7 0.00 0.00 0.00 69 1008.9
20260904193053 88 89 0.0 6.1 0.00 0.00 0.00 68 1008.9
20260904191552 88 14 0.0 5.2 0.00 0.00 0.00 68 1009.0
20260904190051 88 328 0.0 3.5 0.00 0.00 0.00 68 1008.8
20260904184550 88 201 0.0 5.2 0.00 0.00 0.00 69 1008.8
20260904183050 88 224 0.0 0.9 0.00 0.00 0.00 68 1009.0
20260904181554 89 250 0.0 2.6 0.00 0.00 0.00 66 1009.1
20260904180049 90 317 0.0 2.6 0.00 0.00 0.00 64 1009.1
20260904174553 90 234 0.0 0.0 0.00 0.00 0.00 66 1009.2
20260904173045 87 234 0.0 0.0 0.00 0.00 0.00 69 1009.3
20260904171554 87 234 0.0 0.0 0.00 0.00 0.00 68 1009.3
20260904170040 87 234 0.0 0.0 0.00 0.00 0.00 68 1009.3
20260904164538 85 234 0.0 0.0 0.00 0.01 0.00 69 1009.2
20260904163033 84 234 0.0 3.5 0.00 0.01 0.00 70 1009.3
20260904161535 83 233 0.0 3.5 0.00 0.01 0.00 70 1009.4
20260904160028 83 239 0.0 4.3 0.00 0.01 0.00 70 1009.3
20260904154527 82 241 0.0 6.1 0.00 0.01 0.00 69 1009.2
20260904153025 82 240 1.7 5.2 0.00 0.01 0.00 69 1009.2
20260904151522 81 217 0.0 5.2 0.00 0.01 0.00 66 1009.2
20260904150021 80 218 0.0 6.1 0.00 0.01 0.00 66 1009.4
20260904144516 79 227 0.0 5.2 0.00 0.04 0.00 62 1009.3
20260904143013 78 151 0.0 6.1 0.00 0.04 0.00 58 1009.4
20260904141510 78 209 0.9 5.2 0.00 0.04 0.00 53 1009.3
20260904140011 77 173 0.0 2.6 0.00 0.04 0.00 51 1009.2
20260904134506 76 187 0.0 2.6 0.00 0.04 0.00 41 1009.2
20260904133005 75 172 0.0 3.5 0.00 0.04 0.00 14 1008.9
20260904131503 0 110 0.0 1.7 0.00 0.04 0.00 1008.9
20260904130059 0 106 0.0 0.0 0.00 0.04 0.00 1009.0
20260904124555 0 118 0.0 0.0 0.00 0.04 0.00 1008.9
20260904123051 0 198 0.0 0.0 0.00 0.04 0.00 1008.9
20260904121547 0 198 0.0 3.5 0.00 0.04 0.00 1008.8
20260904120049 0 203 0.0 3.5 0.00 0.04 0.00 1008.7
20260904114537 0 204 0.0 6.1 0.00 0.04 0.00 1008.5
20260904113034 0 188 0.9 5.2 0.00 0.04 0.00 1008.5
20260904111537 0 186 0.0 1.7 0.00 0.04 0.00 1008.4
20260904110024 0 186 0.0 1.7 0.00 0.04 0.00 1008.5
20260904104520 0 213 0.0 3.5 0.00 0.04 0.00 1008.4
20260904103015 73 261 0.0 0.9 0.00 0.04 0.00 21 1008.3
20260904101513 73 295 0.0 0.9 0.00 0.04 0.00 21 1008.2